Theta_e
321 322 323 324 324 323 322 322 322 319 319 319 319 318 317 319 319 319 320 321 320 321 322 322 321 322 324 324 324 323 322 323 327 328 328 328 325 325 324 325 326 327 327 328
321 321 317 320 322 323 324 323 324 320 318 320 319 321 319 317 318 319 319 319 319 319 319 320 319 320 322 323 324 323 322 322 321 324 327 328 328 327 326 326 326 326 328 328
321 318 317 318 319 321 321 322 320 323 320 319 319 320 318 317 317 317 317 317 317 318 318 318 318 318 322 323 324 324 323 323 323 323 325 329 330 329 328 327 327 327 327 327
319 317 317 317 318 318 320 317 318 319 320 321 317 320 316 314 313 312 316 317 317 317 316 317 318 318 318 319 320 322 322 322 321 322 322 324 327 329 329 329 328 328 327 327
318 317 318 319 318 318 319 316 317 317 318 320 319 321 315 312 314 314 314 315 315 315 316 317 317 316 317 318 319 320 321 320 320 320 321 323 327 329 330 330 330 330 329 328
314 314 315 316 315 316 315 318 318 318 321 323 319 320 319 316 313 313 313 314 314 314 314 315 315 315 316 316 318 320 320 319 319 322 326 325 327 327 328 328 329 329 329 329
314 315 314 316 316 315 317 319 321 322 322 320 314 318 318 313 312 310 310 314 312 311 311 311 312 312 312 312 313 314 316 317 317 320 324 325 327 329 328 328 329 327 328 329
313 311 315 313 315 316 317 317 319 320 317 317 312 318 317 312 312 314 314 313 312 309 308 309 310 310 310 311 311 311 311 311 311 312 312 311 311 312 314 317 320 323 324 324
311 311 312 313 314 315 318 319 316 316 307 312 313 312 312 313 312 311 311 312 309 307 307 306 307 307 307 308 308 308 309 309 310 310 310 311 311 311 311 311 311 311 313 315
310 308 312 312 314 315 317 315 320 318 320 316 315 312 315 310 310 310 307 307 306 305 304 304 303 303 303 303 303 304 304 304 305 306 307 308 308 309 309 309 310 310 310 310
309 308 312 315 316 316 318 318 316 315 317 316 315 313 309 307 306 307 307 304 302 302 301 300 300 300 300 301 301 301 302 302 302 302 302 302 302 303 304 305 307 308 309 309
310 308 308 312 313 312 314 317 316 316 318 316 317 317 310 309 306 306 302 301 300 300 300 299 299 299 300 300 300 299 299 299 299 299 299 300 300 300 301 301 301 301 302 305
311 312 307 313 314 313 315 315 315 313 310 315 316 316 311 310 306 304 302 302 304 305 304 302 301 300 299 299 299 298 299 299 298 298 299 299 299 299 299 299 299 299 299 300
311 308 310 309 307 309 313 313 315 315 316 315 317 315 313 310 309 306 306 307 307 308 307 304 301 300 299 298 298 297 296 297 297 297 297 297 297 297 297 297 297 297 298 298
310 311 308 309 311 310 310 311 313 315 314 316 314 315 313 311 310 310 309 309 308 307 305 303 301 299 297 296 296 295 293 294 295 296 296 296 296 296 296 296 297 297 297 297
310 312 308 306 309 310 311 309 311 312 313 313 312 312 310 310 309 309 306 301 297 295 294 293 293 292 294 295 295 295 295 295 294 294 295 295 295 295 295 296 296 296 296 296
312 311 310 311 308 310 312 311 310 311 310 311 312 311 307 307 309 306 300 297 294 293 293 293 292 291 289 290 293 293 293 292 293 293 293 294 294 294 294 294 294 295 295 295
312 311 310 308 310 313 308 304 308 310 310 309 307 303 307 306 295 295 294 295 293 292 291 290 290 289 289 289 290 290 290 290 290 290 290 291 292 292 292 292 292 293 293 293
310 311 307 309 310 305 306 302 307 310 310 304 308 298 294 290 292 287 290 290 290 290 291 290 288 287 287 288 288 288 288 288 288 289 289 288 288 288 289 289 289 289 289 290
310 310 311 299 307 310 306 300 302 306 311 296 299 296 292 295 301 291 288 289 289 289 288 287 286 286 286 286 287 287 287 287 287 286 285 286 286 286 286 286 286 286 287 287
310 311 311 303 299 298 299 298 299 307 305 296 296 295 293 294 291 290 288 287 287 286 286 285 285 285 285 285 285 283 283 283 283 283 284 284 284 285 284 285 285 286 286 286
311 312 311 296 305 308 294 296 303 296 289 292 292 293 292 290 287 287 286 285 284 283 283 283 283 283 282 282 282 282 281 281 282 282 283 284 284 284 284 285 284 283 282 282
309 305 302 305 306 288 286 287 289 291 290 289 290 289 292 290 286 284 283 282 282 282 282 281 281 280 279 280 280 281 281 281 282 283 284 284 284 283 283 283 282 282 282 281
301 297 301 299 290 286 284 285 288 289 290 289 289 288 287 286 283 282 281 281 281 280 280 279 279 279 279 279 279 280 281 282 283 283 283 283 283 283 282 282 282 282 281 280
298 298 294 290 284 283 282 283 285 287 287 286 285 285 284 284 282 281 280 279 279 278 278 278 278 278 278 279 281 281 281 281 282 282 282 281 281 280 280 280 280 280 280 278
291 295 300 301 289 291 287 284 284 286 285 284 284 283 282 282 281 280 279 279 278 278 278 278 278 279 280 280 280 280 280 280 279 278 277 276 276 276 276 277 277 277 278 279
Wind_Speed
10 6 12 13 10 7 3 2 3 1 2 4 6 10 11 26 25 25 31 37 44 47 46 44 44 40 38 34 31 35 36 33 33 33 33 35 35 36 35 35 34 31 30 32
5 19 8 4 7 7 5 7 6 3 3 2 7 21 13 10 18 26 30 36 40 41 40 37 39 36 39 40 38 33 36 35 36 36 37 36 37 35 34 35 35 35 35 34
12 4 16 10 7 8 6 11 4 4 0 4 5 23 13 19 24 27 24 29 36 40 41 42 41 35 32 35 38 36 33 33 34 34 36 37 39 39 36 34 34 33 34 35
10 15 7 4 11 7 13 7 5 4 2 8 5 17 13 5 12 8 27 31 34 41 40 36 36 31 24 26 30 35 31 31 32 31 31 34 37 41 39 38 36 34 35 34
7 10 13 12 9 10 6 7 9 6 4 4 14 6 5 6 11 19 18 22 32 25 26 28 22 20 19 22 25 26 29 28 25 25 26 27 29 34 37 38 38 38 36 36
4 2 8 7 5 12 6 5 2 3 6 9 14 10 24 10 12 10 5 12 18 14 9 6 6 3 1 0 7 9 12 16 19 21 20 21 23 24 26 29 31 33 36 37
4 5 3 3 6 2 4 5 3 4 5 9 4 11 23 4 7 7 11 16 1 10 12 15 16 17 17 16 15 12 8 6 3 1 7 11 14 19 23 24 27 29 30 33
13 4 10 5 7 6 10 13 6 5 4 5 4 9 11 6 5 11 17 13 11 13 14 19 21 22 23 21 19 18 16 15 12 9 8 7 7 8 12 16 21 24 26 27
9 7 2 1 5 10 5 12 15 7 1 1 5 8 11 3 10 8 2 14 16 18 20 23 23 23 23 23 22 20 18 18 16 15 11 9 9 10 10 11 12 15 18 22
5 1 1 3 4 4 4 3 4 5 5 4 4 5 7 11 12 3 9 19 21 22 22 23 24 23 23 23 23 22 21 21 19 17 16 15 13 12 12 12 13 15 15 17
5 4 1 5 9 11 6 8 3 1 3 5 11 6 5 10 12 5 15 23 23 23 22 21 22 21 21 21 21 21 20 19 18 17 16 16 16 17 17 17 17 17 18 20
6 4 4 10 3 2 7 12 12 8 5 4 1 2 1 2 11 23 21 25 23 22 20 19 19 19 19 19 20 21 21 20 20 19 19 19 18 18 19 20 21 22 23 22
12 6 3 2 2 2 6 10 11 3 0 10 3 5 4 6 16 20 27 23 20 16 13 13 14 18 18 17 17 20 20 19 19 20 19 20 21 22 24 24 24 24 25 25
24 4 14 14 5 6 8 11 11 9 4 7 9 5 5 6 11 15 17 16 13 9 8 9 10 11 12 13 14 18 20 19 19 20 22 23 25 26 27 28 28 29 30 30
12 10 5 1 2 4 6 10 17 16 25 11 11 13 14 15 12 15 16 12 9 5 2 0 2 5 9 13 17 22 25 25 26 26 26 27 28 29 30 31 32 33 34 33
6 3 7 5 6 5 4 6 18 23 19 20 10 13 5 21 21 14 13 14 13 9 5 3 4 9 9 11 16 18 22 25 27 27 28 31 34 36 38 39 38 37 36 37
10 5 4 10 4 4 6 25 13 14 7 18 15 14 8 8 12 14 16 17 16 10 6 2 4 10 14 17 18 20 22 24 25 28 31 32 36 38 40 42 44 45 46 45
12 11 5 3 5 9 9 2 14 21 17 17 4 2 5 16 18 17 14 17 14 10 5 1 4 10 13 16 17 20 21 24 27 30 33 35 37 39 41 43 44 45 46 47
17 10 3 5 10 6 5 5 7 9 13 10 12 7 16 26 23 8 14 14 12 7 3 4 6 10 13 15 17 19 21 24 28 32 34 37 38 40 42 44 46 47 48 48
15 17 11 2 6 11 7 5 8 7 11 11 17 16 21 22 8 5 16 12 8 5 4 4 7 10 12 15 17 19 22 26 28 32 34 37 38 40 41 43 44 44 44 45
11 11 15 6 5 8 5 7 9 9 5 15 18 23 26 7 2 24 18 12 7 5 4 5 8 10 13 14 17 19 21 24 28 30 32 34 35 36 38 40 42 43 44 45
13 11 8 4 6 14 9 5 11 3 8 20 23 25 20 18 21 20 14 10 6 4 3 4 6 7 10 14 16 17 20 24 26 28 29 31 33 35 36 37 39 41 44 46
8 7 7 10 8 1 4 2 6 11 20 21 25 21 27 25 20 16 13 9 6 3 1 1 3 6 9 12 15 16 18 21 23 25 27 29 29 30 32 36 39 42 43 45
4 3 4 4 4 3 6 8 12 13 22 24 24 25 24 23 18 14 11 9 6 4 2 2 4 6 8 10 12 16 18 19 20 22 24 27 29 30 31 33 35 38 40 42
2 7 6 1 1 3 8 12 18 21 23 24 22 19 18 17 15 12 11 9 7 5 4 4 5 7 8 10 12 15 18 18 19 21 22 23 25 28 30 30 30 32 31 32
4 6 6 6 14 4 7 27 24 26 26 23 21 19 16 15 13 12 11 9 8 6 5 4 4 5 7 8 10 12 14 17 19 21 22 23 25 26 28 30 31 28 28 30
Wind_Direction
186 210 216 200 216 238 133 141 229 302 308 300 250 268 262 272 283 287 292 295 296 290 289 287 280 269 266 271 276 262 262 262 259 257 258 258 261 261 264 264 266 267 267 266
170 231 210 202 183 211 218 246 252 219 206 250 294 281 270 254 267 274 279 286 288 291 291 288 292 287 267 266 270 272 261 261 266 262 261 260 264 265 270 271 270 270 269 268
209 187 173 186 190 196 211 228 187 242 225 258 317 282 277 270 267 273 278 283 284 284 290 295 295 292 274 267 263 265 268 266 267 268 265 261 261 263 264 271 273 273 273 273
231 238 181 189 217 164 234 163 179 230 158 263 159 281 274 263 269 249 271 272 280 291 294 292 290 290 283 277 265 261 267 272 276 276 275 270 265 265 270 272 277 282 284 284
203 173 197 204 205 175 233 157 183 182 211 295 245 272 331 34 279 277 268 272 287 298 300 293 285 282 276 274 267 260 264 269 261 258 267 272 272 271 273 276 279 281 282 284
224 227 185 206 139 177 144 108 141 161 227 239 240 209 275 253 247 259 264 264 313 320 347 24 66 92 119 284 272 260 256 258 253 254 260 263 271 270 272 277 282 285 288 287
158 199 217 178 109 68 152 139 225 205 202 246 152 187 244 260 265 260 252 284 3 77 78 83 90 96 97 88 81 79 77 82 67 281 271 273 269 273 275 281 285 287 287 289
210 222 174 182 197 168 191 208 223 227 212 233 142 224 251 252 323 260 267 183 124 101 95 93 91 91 89 86 81 78 76 77 67 57 49 27 354 326 307 293 287 286 287 292
188 228 68 151 152 162 179 214 222 278 94 283 222 280 294 305 269 261 9 184 118 95 92 87 86 82 79 78 74 70 67 64 62 61 54 39 21 4 355 345 336 318 305 295
204 96 226 171 101 271 186 197 178 203 227 253 237 269 251 338 316 325 110 89 89 95 89 82 78 78 77 75 72 69 66 64 60 55 49 43 33 21 11 357 349 339 328 320
146 104 126 141 204 184 188 221 191 344 249 267 265 245 329 299 297 101 95 98 103 96 86 77 73 69 67 68 65 60 58 54 51 48 43 36 29 22 16 10 6 356 350 342
170 136 161 205 152 224 207 218 209 231 210 216 224 250 332 326 86 98 87 95 94 86 79 70 63 57 53 51 49 44 42 40 36 30 24 19 15 10 6 3 356 350 346 343
176 195 128 205 276 215 215 207 195 175 173 248 273 256 164 86 105 115 120 116 99 81 65 52 41 38 36 36 33 28 23 22 17 13 9 4 358 355 352 348 344 341 337 333
167 174 206 213 189 145 199 205 200 189 233 242 232 210 173 157 133 139 134 119 98 76 54 32 18 14 16 18 16 10 9 6 2 359 357 354 350 347 342 338 335 333 330 327
178 216 202 219 159 175 188 189 199 208 228 222 237 217 199 179 164 162 155 133 117 113 141 197 302 332 360 5 2 360 357 357 355 349 346 345 343 339 336 334 332 329 328 326
205 224 154 239 215 187 234 221 206 213 223 232 246 256 166 172 178 171 145 133 125 121 126 84 13 354 356 3 353 351 345 344 346 345 342 340 339 337 334 332 331 329 326 324
201 177 145 236 167 115 263 237 201 217 207 216 229 237 154 158 165 157 146 149 149 157 154 115 356 347 342 354 348 344 342 342 342 341 341 339 336 334 331 329 328 327 325 323
192 202 175 178 140 217 250 125 210 211 214 200 214 155 180 148 123 132 158 159 154 158 152 333 329 335 337 339 339 340 342 345 347 344 343 341 338 335 332 330 328 326 324 322
198 177 176 189 210 307 268 212 166 176 236 210 199 137 135 129 125 112 153 157 152 157 192 279 318 328 324 333 341 348 349 349 348 347 346 345 345 341 339 335 334 332 328 324
203 203 202 149 187 224 260 177 163 104 261 172 170 171 156 155 174 169 174 168 171 194 235 283 309 318 330 345 354 353 355 354 352 355 354 352 349 347 345 344 341 338 335 331
195 201 208 176 223 276 201 160 150 160 243 169 169 162 166 170 167 160 168 173 190 213 265 303 327 342 351 356 3 5 1 2 4 2 358 356 353 352 352 349 346 343 340 337
185 189 199 131 213 256 151 116 179 151 114 159 162 164 163 150 141 152 163 178 195 228 280 330 347 356 5 12 14 12 10 10 8 4 0 359 358 357 353 352 354 357 357 354
197 191 174 196 212 51 178 33 150 161 152 159 156 162 171 161 159 164 169 180 194 206 241 350 26 31 27 23 19 17 15 11 8 2 0 360 0 359 359 1 4 6 5 1
235 172 148 122 176 172 190 183 172 172 164 161 158 153 160 161 164 166 173 177 181 175 154 93 67 53 40 31 22 17 14 8 1 359 358 357 354 355 358 3 5 6 6 3
177 139 142 54 78 61 228 200 170 159 162 160 158 161 161 165 165 172 174 172 168 155 129 93 66 50 37 28 16 8 3 357 352 352 351 349 349 352 354 357 2 3 9 7
188 168 180 221 184 145 186 186 172 166 166 167 169 163 167 174 174 176 174 169 161 150 127 102 66 42 27 16 5 356 349 344 342 343 344 347 351 353 354 352 350 1 3 3